Location: Peebles
(55.6412°N, 3.1714°W)
Time: 10:31:45
(UTC+01:00)

SL-27 R/B - Pass Details

Date: 26 September 2021
Orbit: 417 x 466 km, 74.7° (Epoch: 21 October)

Event Time Altitude Azimuth Distance (km) Brightness Sun altitude
Rises 20:52:00 0° 331° (NNW) 2,381 6.9 -16.2°
Reaches altitude 10° 20:54:04 10° 329° (NNW) 1,513 5.9 -16.5°
Maximum altitude 20:57:21 67° 247° (WSW) 462 2.5 -16.9°
Enters shadow 20:58:50 30° 172° (S) 798 3.3 -17.1°
